Time,TemperatureF,DewpointF,PressureIn,WindDirection,WindDirectionDegrees,WindSpeedMPH,WindSpeedGustMPH,Humidity,HourlyPrecipIn,Conditions,Clouds,dailyrainin,SolarRadiationWatts/m^2,SoftwareType,DateUTC
2013-04-28 00:02:00,73.2,70.7,29.84,North,-999,0.0,0.0,92,0.51,,,-99.99,0,WeatherLink 5.4,2013-04-28 04:02:00,
2013-04-28 00:04:00,73.2,70.7,29.84,North,-999,0.0,0.0,92,0.51,,,-99.99,0,WeatherLink 5.4,2013-04-28 04:04:00,
2013-04-28 00:10:00,73.3,70.8,29.84,North,-999,0.0,0.0,92,0.51,,,-99.99,0,WeatherLink 5.4,2013-04-28 04:10:00,
2013-04-28 00:15:00,73.3,70.8,29.84,North,-999,0.0,0.0,92,0.51,,,-99.99,0,WeatherLink 5.4,2013-04-28 04:15:00,
2013-04-28 00:21:00,73.3,70.8,29.84,North,-999,0.0,0.0,92,0.49,,,-99.99,0,WeatherLink 5.4,2013-04-28 04:21:00,
2013-04-28 00:26:00,73.5,71.0,29.84,North,-999,0.0,0.0,92,0.38,,,-99.99,0,WeatherLink 5.4,2013-04-28 04:26:00,
2013-04-28 00:32:00,73.5,71.0,29.84,East,90,7.0,11.0,92,0.24,,,-99.99,0,WeatherLink 5.4,2013-04-28 04:32:00,
2013-04-28 00:37:00,73.0,70.5,29.84,ESE,112,9.0,13.0,92,0.09,,,-99.99,0,WeatherLink 5.4,2013-04-28 04:37:00,
2013-04-28 00:43:00,72.7,70.2,29.84,East,90,2.0,11.0,92,0.06,,,-99.99,0,WeatherLink 5.4,2013-04-28 04:43:00,
2013-04-28 00:48:00,72.7,70.2,29.84,ESE,112,5.0,10.0,92,0.06,,,-99.99,0,WeatherLink 5.4,2013-04-28 04:48:00,
2013-04-28 00:54:00,72.5,70.0,29.84,North,-999,0.0,0.0,92,0.06,,,-99.99,0,WeatherLink 5.4,2013-04-28 04:54:00,
2013-04-28 01:00:00,72.5,70.0,29.84,ESE,112,2.0,6.0,92,0.06,,,-99.99,0,WeatherLink 5.4,2013-04-28 05:00:00,
2013-04-28 01:05:00,72.5,70.0,29.84,East,90,1.0,4.0,92,0.06,,,-99.99,0,WeatherLink 5.4,2013-04-28 05:05:00,
2013-04-28 01:11:00,72.3,69.8,29.83,North,-999,0.0,0.0,92,0.07,,,-99.99,0,WeatherLink 5.4,2013-04-28 05:11:00,
2013-04-28 01:16:00,72.3,69.8,29.83,North,-999,0.0,0.0,92,0.07,,,-99.99,0,WeatherLink 5.4,2013-04-28 05:16:00,
2013-04-28 01:22:00,72.5,70.0,29.83,ESE,112,1.0,3.0,92,0.06,,,-99.99,0,WeatherLink 5.4,2013-04-28 05:22:00,
2013-04-28 01:27:00,72.5,70.0,29.83,North,-999,0.0,0.0,92,0.06,,,-99.99,0,WeatherLink 5.4,2013-04-28 05:27:00,
2013-04-28 01:33:00,72.5,70.0,29.83,North,-999,0.0,0.0,92,0.07,,,-99.99,0,WeatherLink 5.4,2013-04-28 05:33:00,
2013-04-28 01:38:00,72.5,70.4,29.83,North,-999,0.0,0.0,93,0.05,,,-99.99,0,WeatherLink 5.4,2013-04-28 05:38:00,
2013-04-28 01:44:00,72.5,70.4,29.83,North,-999,0.0,0.0,93,0.03,,,-99.99,0,WeatherLink 5.4,2013-04-28 05:44:00,
2013-04-28 01:49:00,72.5,70.4,29.83,North,-999,0.0,0.0,93,0.02,,,-99.99,0,WeatherLink 5.4,2013-04-28 05:49:00,
2013-04-28 01:55:00,72.7,70.6,29.83,North,-999,0.0,0.0,93,0.02,,,-99.99,0,WeatherLink 5.4,2013-04-28 05:55:00,
2013-04-28 02:01:00,72.7,70.6,29.83,North,-999,0.0,0.0,93,0.02,,,-99.99,0,WeatherLink 5.4,2013-04-28 06:01:00,
2013-04-28 02:06:00,72.7,70.6,29.83,North,-999,0.0,0.0,93,0.02,,,-99.99,0,WeatherLink 5.4,2013-04-28 06:06:00,
2013-04-28 02:11:00,72.7,70.6,29.83,North,-999,0.0,0.0,93,0.01,,,-99.99,0,WeatherLink 5.4,2013-04-28 06:11:00,
2013-04-28 02:16:00,72.7,70.6,29.83,North,-999,0.0,0.0,93,0.01,,,-99.99,0,WeatherLink 5.4,2013-04-28 06:16:00,
2013-04-28 02:22:00,72.7,70.6,29.83,North,-999,0.0,0.0,93,0.01,,,-99.99,0,WeatherLink 5.4,2013-04-28 06:22:00,
2013-04-28 02:28:00,72.8,70.7,29.82,North,-999,0.0,0.0,93,0.01,,,-99.99,0,WeatherLink 5.4,2013-04-28 06:28:00,
2013-04-28 02:33:00,72.8,70.7,29.82,North,-999,0.0,0.0,93,0.00,,,-99.99,0,WeatherLink 5.4,2013-04-28 06:33:00,
2013-04-28 02:39:00,72.8,70.7,29.82,North,-999,0.0,0.0,93,0.00,,,-99.99,0,WeatherLink 5.4,2013-04-28 06:39:00,
2013-04-28 02:44:00,72.8,70.7,29.82,North,-999,0.0,0.0,93,0.00,,,-99.99,0,WeatherLink 5.4,2013-04-28 06:44:00,
2013-04-28 02:50:00,72.8,70.7,29.82,North,-999,0.0,0.0,93,0.00,,,-99.99,0,WeatherLink 5.4,2013-04-28 06:50:00,
2013-04-28 02:55:00,72.8,70.7,29.82,North,-999,0.0,0.0,93,0.01,,,-99.99,0,WeatherLink 5.4,2013-04-28 06:55:00,
2013-04-28 03:01:00,72.8,70.7,29.82,North,-999,0.0,0.0,93,0.02,,,-99.99,0,WeatherLink 5.4,2013-04-28 07:01:00,
2013-04-28 03:07:00,72.5,70.4,29.82,North,-999,0.0,0.0,93,0.03,,,-99.99,0,WeatherLink 5.4,2013-04-28 07:07:00,
2013-04-28 03:13:00,72.3,70.2,29.82,North,-999,0.0,0.0,93,0.03,,,-99.99,0,WeatherLink 5.4,2013-04-28 07:13:00,
2013-04-28 03:18:00,72.3,70.2,29.82,North,-999,0.0,0.0,93,0.03,,,-99.99,0,WeatherLink 5.4,2013-04-28 07:18:00,
2013-04-28 03:24:00,72.3,70.2,29.82,North,-999,0.0,0.0,93,0.03,,,-99.99,0,WeatherLink 5.4,2013-04-28 07:24:00,
2013-04-28 03:29:00,72.3,70.2,29.81,North,-999,0.0,0.0,93,0.03,,,-99.99,0,WeatherLink 5.4,2013-04-28 07:29:00,
2013-04-28 03:34:00,72.5,70.4,29.81,North,-999,0.0,0.0,93,0.03,,,-99.99,0,WeatherLink 5.4,2013-04-28 07:34:00,
2013-04-28 03:41:00,72.6,70.5,29.81,North,-999,0.0,0.0,93,0.03,,,-99.99,0,WeatherLink 5.4,2013-04-28 07:41:00,
2013-04-28 03:46:00,72.7,70.6,29.81,North,-999,0.0,0.0,93,0.03,,,-99.99,0,WeatherLink 5.4,2013-04-28 07:46:00,
2013-04-28 03:52:00,72.7,70.6,29.81,North,-999,0.0,0.0,93,0.03,,,-99.99,0,WeatherLink 5.4,2013-04-28 07:52:00,
2013-04-28 03:57:00,72.5,70.4,29.81,North,-999,0.0,0.0,93,0.02,,,-99.99,0,WeatherLink 5.4,2013-04-28 07:57:00,
2013-04-28 04:03:00,72.5,70.4,29.81,North,-999,0.0,0.0,93,0.01,,,-99.99,0,WeatherLink 5.4,2013-04-28 08:03:00,
2013-04-28 04:08:00,72.5,70.4,29.81,North,-999,0.0,0.0,93,0.00,,,-99.99,0,WeatherLink 5.4,2013-04-28 08:08:00,
2013-04-28 04:14:00,72.7,70.6,29.81,North,-999,0.0,0.0,93,0.00,,,-99.99,0,WeatherLink 5.4,2013-04-28 08:14:00,
2013-04-28 04:20:00,72.7,70.6,29.81,North,-999,0.0,0.0,93,0.00,,,-99.99,0,WeatherLink 5.4,2013-04-28 08:20:00,
2013-04-28 04:25:00,72.7,70.6,29.81,North,-999,0.0,0.0,93,0.00,,,-99.99,0,WeatherLink 5.4,2013-04-28 08:25:00,
2013-04-28 04:31:00,72.7,70.6,29.81,North,-999,0.0,0.0,93,0.00,,,-99.99,0,WeatherLink 5.4,2013-04-28 08:31:00,
2013-04-28 04:37:00,72.7,70.6,29.81,North,-999,0.0,0.0,93,0.00,,,-99.99,0,WeatherLink 5.4,2013-04-28 08:37:00,
2013-04-28 04:42:00,72.7,70.6,29.81,North,-999,0.0,0.0,93,0.00,,,-99.99,0,WeatherLink 5.4,2013-04-28 08:42:00,
2013-04-28 04:48:00,72.5,70.4,29.81,North,-999,0.0,0.0,93,0.00,,,-99.99,0,WeatherLink 5.4,2013-04-28 08:48:00,
2013-04-28 04:54:00,72.5,70.4,29.81,North,-999,0.0,0.0,93,0.00,,,-99.99,0,WeatherLink 5.4,2013-04-28 08:54:00,
2013-04-28 04:59:00,72.5,70.4,29.81,North,-999,0.0,0.0,93,0.00,,,-99.99,0,WeatherLink 5.4,2013-04-28 08:59:00,
2013-04-28 05:05:00,72.5,70.4,29.81,North,-999,0.0,0.0,93,0.00,,,-99.99,0,WeatherLink 5.4,2013-04-28 09:05:00,
2013-04-28 05:10:00,72.5,70.4,29.81,North,-999,0.0,0.0,93,0.00,,,-99.99,0,WeatherLink 5.4,2013-04-28 09:10:00,
2013-04-28 05:16:00,72.5,70.4,29.81,North,-999,0.0,0.0,93,0.00,,,-99.99,0,WeatherLink 5.4,2013-04-28 09:16:00,
2013-04-28 05:21:00,72.3,70.2,29.81,North,-999,0.0,0.0,93,0.00,,,-99.99,0,WeatherLink 5.4,2013-04-28 09:21:00,
2013-04-28 05:27:00,72.3,70.2,29.81,North,-999,0.0,0.0,93,0.00,,,-99.99,0,WeatherLink 5.4,2013-04-28 09:27:00,
2013-04-28 05:33:00,72.3,70.2,29.81,North,-999,0.0,0.0,93,0.00,,,-99.99,0,WeatherLink 5.4,2013-04-28 09:33:00,
2013-04-28 05:39:00,72.3,70.2,29.82,North,-999,0.0,0.0,93,0.00,,,-99.99,0,WeatherLink 5.4,2013-04-28 09:39:00,
2013-04-28 05:45:00,72.1,70.0,29.82,North,-999,0.0,0.0,93,0.00,,,-99.99,0,WeatherLink 5.4,2013-04-28 09:45:00,
2013-04-28 05:50:00,72.1,70.0,29.82,North,-999,0.0,0.0,93,0.00,,,-99.99,0,WeatherLink 5.4,2013-04-28 09:50:00,
2013-04-28 05:56:00,72.1,70.0,29.82,North,-999,0.0,0.0,93,0.00,,,-99.99,0,WeatherLink 5.4,2013-04-28 09:56:00,
2013-04-28 06:02:00,72.1,70.0,29.82,North,-999,0.0,0.0,93,0.00,,,-99.99,7,WeatherLink 5.4,2013-04-28 10:02:00,
2013-04-28 06:07:00,72.1,70.0,29.82,North,-999,0.0,0.0,93,0.00,,,-99.99,7,WeatherLink 5.4,2013-04-28 10:07:00,
2013-04-28 06:15:00,72.1,70.0,29.82,North,-999,0.0,0.0,93,0.00,,,-99.99,11,WeatherLink 5.4,2013-04-28 10:15:00,
2013-04-28 06:16:00,72.1,70.0,29.82,North,-999,0.0,0.0,93,0.00,,,-99.99,11,WeatherLink 5.4,2013-04-28 10:16:00,
2013-04-28 06:17:00,72.1,70.3,29.82,North,-999,0.0,0.0,94,0.00,,,-99.99,11,WeatherLink 5.4,2013-04-28 10:17:00,
2013-04-28 06:18:00,72.1,70.3,29.82,North,-999,0.0,0.0,94,0.00,,,-99.99,12,WeatherLink 5.4,2013-04-28 10:18:00,
2013-04-28 06:19:00,72.1,70.3,29.82,North,-999,0.0,0.0,94,0.00,,,-99.99,12,WeatherLink 5.4,2013-04-28 10:19:00,
2013-04-28 06:20:00,72.1,70.3,29.82,North,-999,0.0,0.0,94,0.00,,,-99.99,12,WeatherLink 5.4,2013-04-28 10:20:00,
2013-04-28 06:21:00,72.1,70.3,29.82,North,-999,0.0,0.0,94,0.00,,,-99.99,12,WeatherLink 5.4,2013-04-28 10:21:00,
2013-04-28 06:22:00,72.0,69.9,29.82,North,-999,0.0,0.0,93,0.00,,,-99.99,12,WeatherLink 5.4,2013-04-28 10:22:00,
2013-04-28 06:23:00,72.0,70.2,29.82,North,-999,0.0,0.0,94,0.00,,,-99.99,14,WeatherLink 5.4,2013-04-28 10:23:00,
2013-04-28 06:24:00,72.0,70.2,29.82,North,-999,0.0,0.0,94,0.00,,,-99.99,14,WeatherLink 5.4,2013-04-28 10:24:00,
2013-04-28 06:25:00,72.0,70.2,29.82,North,-999,0.0,0.0,94,0.00,,,-99.99,16,WeatherLink 5.4,2013-04-28 10:25:00,
2013-04-28 06:26:00,72.0,70.2,29.82,North,-999,0.0,0.0,94,0.00,,,-99.99,16,WeatherLink 5.4,2013-04-28 10:26:00,
2013-04-28 06:27:00,72.0,70.2,29.82,North,-999,0.0,0.0,94,0.00,,,-99.99,16,WeatherLink 5.4,2013-04-28 10:27:00,
2013-04-28 06:28:00,72.1,70.3,29.82,North,-999,0.0,0.0,94,0.00,,,-99.99,18,WeatherLink 5.4,2013-04-28 10:28:00,
2013-04-28 06:29:00,72.1,70.3,29.82,North,-999,0.0,0.0,94,0.00,,,-99.99,19,WeatherLink 5.4,2013-04-28 10:29:00,
2013-04-28 06:30:00,72.1,70.3,29.82,North,-999,0.0,0.0,94,0.00,,,-99.99,19,WeatherLink 5.4,2013-04-28 10:30:00,
2013-04-28 06:31:00,72.1,70.3,29.82,North,-999,0.0,0.0,94,0.00,,,-99.99,19,WeatherLink 5.4,2013-04-28 10:31:00,
2013-04-28 06:32:00,72.1,70.3,29.82,North,-999,0.0,0.0,94,0.00,,,-99.99,19,WeatherLink 5.4,2013-04-28 10:32:00,
2013-04-28 06:33:00,72.1,70.3,29.82,North,-999,0.0,0.0,94,0.00,,,-99.99,21,WeatherLink 5.4,2013-04-28 10:33:00,
2013-04-28 06:34:00,72.3,70.5,29.82,North,-999,0.0,0.0,94,0.00,,,-99.99,21,WeatherLink 5.4,2013-04-28 10:34:00,
2013-04-28 06:35:00,72.3,70.5,29.82,North,-999,0.0,0.0,94,0.00,,,-99.99,21,WeatherLink 5.4,2013-04-28 10:35:00,
2013-04-28 06:36:00,72.3,70.5,29.82,North,-999,0.0,0.0,94,0.00,,,-99.99,23,WeatherLink 5.4,2013-04-28 10:36:00,
2013-04-28 06:37:00,72.3,70.5,29.82,North,-999,0.0,0.0,94,0.00,,,-99.99,23,WeatherLink 5.4,2013-04-28 10:37:00,
2013-04-28 06:38:00,72.3,70.5,29.82,North,-999,0.0,0.0,94,0.00,,,-99.99,23,WeatherLink 5.4,2013-04-28 10:38:00,
2013-04-28 06:39:00,72.3,70.5,29.82,North,-999,0.0,0.0,94,0.00,,,-99.99,23,WeatherLink 5.4,2013-04-28 10:39:00,
2013-04-28 06:40:00,72.3,70.5,29.82,North,-999,0.0,0.0,94,0.00,,,-99.99,23,WeatherLink 5.4,2013-04-28 10:40:00,
2013-04-28 06:41:00,72.3,70.5,29.82,North,-999,0.0,0.0,94,0.00,,,-99.99,25,WeatherLink 5.4,2013-04-28 10:41:00,
2013-04-28 06:42:00,72.3,70.5,29.82,North,-999,0.0,0.0,94,0.00,,,-99.99,25,WeatherLink 5.4,2013-04-28 10:42:00,
2013-04-28 06:43:00,72.3,70.5,29.82,North,-999,0.0,0.0,94,0.00,,,-99.99,25,WeatherLink 5.4,2013-04-28 10:43:00,
2013-04-28 06:44:00,72.3,70.5,29.82,North,-999,0.0,0.0,94,0.00,,,-99.99,25,WeatherLink 5.4,2013-04-28 10:44:00,
2013-04-28 06:45:00,72.3,70.5,29.83,North,-999,0.0,0.0,94,0.00,,,-99.99,25,WeatherLink 5.4,2013-04-28 10:45:00,
2013-04-28 06:46:00,72.3,70.5,29.83,North,-999,0.0,0.0,94,0.00,,,-99.99,25,WeatherLink 5.4,2013-04-28 10:46:00,
2013-04-28 06:47:00,72.3,70.5,29.83,North,-999,0.0,0.0,94,0.00,,,-99.99,26,WeatherLink 5.4,2013-04-28 10:47:00,
2013-04-28 06:48:00,72.3,70.5,29.83,North,-999,0.0,0.0,94,0.00,,,-99.99,26,WeatherLink 5.4,2013-04-28 10:48:00,
2013-04-28 06:49:00,72.3,70.5,29.83,North,-999,0.0,0.0,94,0.01,,,-99.99,28,WeatherLink 5.4,2013-04-28 10:49:00,
2013-04-28 06:50:00,72.3,70.5,29.83,North,-999,0.0,0.0,94,0.01,,,-99.99,32,WeatherLink 5.4,2013-04-28 10:50:00,
2013-04-28 06:51:00,72.3,70.5,29.83,North,-999,0.0,0.0,94,0.01,,,-99.99,39,WeatherLink 5.4,2013-04-28 10:51:00,
2013-04-28 06:52:00,72.3,70.5,29.83,North,-999,0.0,0.0,94,0.01,,,-99.99,70,WeatherLink 5.4,2013-04-28 10:52:00,
2013-04-28 06:53:00,72.3,70.5,29.83,North,-999,0.0,0.0,94,0.01,,,-99.99,52,WeatherLink 5.4,2013-04-28 10:53:00,
2013-04-28 06:54:00,72.3,70.5,29.83,North,-999,0.0,0.0,94,0.01,,,-99.99,62,WeatherLink 5.4,2013-04-28 10:54:00,
2013-04-28 06:55:00,72.3,70.5,29.83,North,-999,0.0,0.0,94,0.01,,,-99.99,72,WeatherLink 5.4,2013-04-28 10:55:00,
2013-04-28 06:56:00,72.3,70.5,29.83,North,-999,0.0,0.0,94,0.01,,,-99.99,111,WeatherLink 5.4,2013-04-28 10:56:00,
2013-04-28 06:57:00,72.3,70.5,29.83,North,-999,0.0,0.0,94,0.01,,,-99.99,106,WeatherLink 5.4,2013-04-28 10:57:00,
2013-04-28 06:58:00,72.5,70.7,29.83,North,-999,0.0,0.0,94,0.01,,,-99.99,169,WeatherLink 5.4,2013-04-28 10:58:00,
2013-04-28 07:08:00,72.5,70.7,29.83,North,-999,0.0,0.0,94,0.01,,,-99.99,178,WeatherLink 5.4,2013-04-28 11:08:00,
2013-04-28 07:13:00,72.7,70.9,29.84,North,-999,0.0,0.0,94,0.01,,,-99.99,239,WeatherLink 5.4,2013-04-28 11:13:00,
2013-04-28 07:20:00,72.7,70.9,29.84,North,-999,0.0,0.0,94,0.01,,,-99.99,241,WeatherLink 5.4,2013-04-28 11:20:00,
2013-04-28 07:21:00,72.7,70.9,29.84,North,-999,0.0,0.0,94,0.01,,,-99.99,245,WeatherLink 5.4,2013-04-28 11:21:00,
2013-04-28 07:22:00,72.7,70.9,29.84,ESE,112,12.0,112.0,94,0.01,,,-99.99,245,WeatherLink 5.4,2013-04-28 11:22:00,
2013-04-28 07:23:00,72.7,70.9,29.84,North,-999,0.0,112.0,94,0.01,,,-99.99,245,WeatherLink 5.4,2013-04-28 11:23:00,
2013-04-28 07:24:00,72.8,71.0,29.84,North,-999,0.0,0.0,94,0.01,,,-99.99,245,WeatherLink 5.4,2013-04-28 11:24:00,
2013-04-28 07:25:00,72.8,71.0,29.84,North,-999,0.0,0.0,94,0.01,,,-99.99,246,WeatherLink 5.4,2013-04-28 11:25:00,
2013-04-28 07:26:00,72.8,71.0,29.84,North,-999,0.0,0.0,94,0.01,,,-99.99,250,WeatherLink 5.4,2013-04-28 11:26:00,
2013-04-28 07:27:00,73.0,71.2,29.84,North,-999,0.0,0.0,94,0.01,,,-99.99,248,WeatherLink 5.4,2013-04-28 11:27:00,
2013-04-28 07:28:00,73.0,71.2,29.84,North,-999,0.0,0.0,94,0.01,,,-99.99,266,WeatherLink 5.4,2013-04-28 11:28:00,
2013-04-28 07:29:00,73.1,71.3,29.84,North,-999,0.0,0.0,94,0.01,,,-99.99,255,WeatherLink 5.4,2013-04-28 11:29:00,
2013-04-28 07:30:00,73.2,71.4,29.85,North,-999,0.0,0.0,94,0.01,,,-99.99,273,WeatherLink 5.4,2013-04-28 11:30:00,
2013-04-28 07:31:00,73.2,71.4,29.85,North,-999,0.0,0.0,94,0.01,,,-99.99,301,WeatherLink 5.4,2013-04-28 11:31:00,
2013-04-28 07:32:00,73.3,71.5,29.85,North,-999,0.0,0.0,94,0.01,,,-99.99,317,WeatherLink 5.4,2013-04-28 11:32:00,
2013-04-28 07:33:00,73.3,71.5,29.85,North,-999,0.0,0.0,94,0.01,,,-99.99,330,WeatherLink 5.4,2013-04-28 11:33:00,
2013-04-28 07:34:00,73.5,71.7,29.85,North,-999,0.0,0.0,94,0.01,,,-99.99,331,WeatherLink 5.4,2013-04-28 11:34:00,
2013-04-28 07:35:00,73.5,71.7,29.85,North,-999,0.0,0.0,94,0.01,,,-99.99,331,WeatherLink 5.4,2013-04-28 11:35:00,
2013-04-28 07:36:00,73.5,71.7,29.85,North,-999,0.0,0.0,94,0.01,,,-99.99,331,WeatherLink 5.4,2013-04-28 11:36:00,
2013-04-28 07:37:00,73.5,71.4,29.85,North,-999,0.0,0.0,93,0.01,,,-99.99,373,WeatherLink 5.4,2013-04-28 11:37:00,
2013-04-28 07:38:00,73.5,71.4,29.85,North,-999,0.0,0.0,93,0.01,,,-99.99,363,WeatherLink 5.4,2013-04-28 11:38:00,
2013-04-28 07:39:00,73.7,71.5,29.85,North,-999,0.0,0.0,93,0.01,,,-99.99,352,WeatherLink 5.4,2013-04-28 11:39:00,
2013-04-28 07:40:00,73.7,71.5,29.85,North,-999,0.0,0.0,93,0.01,,,-99.99,350,WeatherLink 5.4,2013-04-28 11:40:00,
2013-04-28 07:41:00,73.7,71.5,29.85,North,-999,0.0,0.0,93,0.01,,,-99.99,350,WeatherLink 5.4,2013-04-28 11:41:00,
2013-04-28 07:42:00,73.9,71.7,29.85,North,-999,0.0,0.0,93,0.01,,,-99.99,350,WeatherLink 5.4,2013-04-28 11:42:00,
2013-04-28 07:43:00,73.9,71.7,29.85,North,-999,0.0,0.0,93,0.01,,,-99.99,135,WeatherLink 5.4,2013-04-28 11:43:00,
2013-04-28 07:44:00,73.9,71.7,29.85,North,-999,0.0,0.0,93,0.01,,,-99.99,331,WeatherLink 5.4,2013-04-28 11:44:00,
2013-04-28 07:45:00,73.9,71.7,29.85,North,-999,0.0,0.0,93,0.01,,,-99.99,327,WeatherLink 5.4,2013-04-28 11:45:00,
2013-04-28 07:46:00,73.9,71.7,29.85,North,-999,0.0,0.0,93,0.01,,,-99.99,324,WeatherLink 5.4,2013-04-28 11:46:00,
2013-04-28 07:47:00,73.9,71.7,29.85,North,-999,0.0,0.0,93,0.01,,,-99.99,324,WeatherLink 5.4,2013-04-28 11:47:00,
2013-04-28 07:48:00,73.9,71.7,29.85,North,-999,0.0,0.0,93,0.01,,,-99.99,95,WeatherLink 5.4,2013-04-28 11:48:00,
2013-04-28 07:49:00,73.9,71.7,29.85,North,-999,0.0,0.0,93,0.00,,,-99.99,95,WeatherLink 5.4,2013-04-28 11:49:00,
2013-04-28 07:50:00,73.9,71.7,29.85,North,-999,0.0,0.0,93,0.00,,,-99.99,343,WeatherLink 5.4,2013-04-28 11:50:00,
2013-04-28 07:51:00,74.0,71.8,29.85,North,-999,0.0,0.0,93,0.00,,,-99.99,343,WeatherLink 5.4,2013-04-28 11:51:00,
2013-04-28 07:52:00,74.0,71.8,29.85,North,-999,0.0,0.0,93,0.00,,,-99.99,81,WeatherLink 5.4,2013-04-28 11:52:00,
2013-04-28 07:53:00,74.0,71.8,29.85,North,-999,0.0,0.0,93,0.00,,,-99.99,70,WeatherLink 5.4,2013-04-28 11:53:00,
2013-04-28 07:54:00,74.0,71.8,29.85,North,-999,0.0,0.0,93,0.00,,,-99.99,77,WeatherLink 5.4,2013-04-28 11:54:00,
2013-04-28 07:55:00,74.1,71.9,29.85,North,-999,0.0,0.0,93,0.00,,,-99.99,91,WeatherLink 5.4,2013-04-28 11:55:00,
2013-04-28 07:56:00,74.2,72.0,29.85,North,-999,0.0,0.0,93,0.00,,,-99.99,91,WeatherLink 5.4,2013-04-28 11:56:00,
2013-04-28 07:57:00,74.2,72.0,29.85,North,-999,0.0,0.0,93,0.00,,,-99.99,91,WeatherLink 5.4,2013-04-28 11:57:00,
2013-04-28 07:58:00,74.2,72.0,29.85,North,-999,0.0,0.0,93,0.00,,,-99.99,127,WeatherLink 5.4,2013-04-28 11:58:00,
2013-04-28 07:59:00,74.2,72.0,29.85,North,-999,0.0,0.0,93,0.00,,,-99.99,127,WeatherLink 5.4,2013-04-28 11:59:00,
2013-04-28 08:00:00,74.2,72.0,29.85,North,-999,0.0,0.0,93,0.00,,,-99.99,127,WeatherLink 5.4,2013-04-28 12:00:00,
2013-04-28 08:01:00,74.2,72.0,29.85,North,-999,0.0,0.0,93,0.00,,,-99.99,294,WeatherLink 5.4,2013-04-28 12:01:00,
2013-04-28 08:02:00,74.2,71.7,29.85,North,-999,0.0,0.0,92,0.00,,,-99.99,294,WeatherLink 5.4,2013-04-28 12:02:00,
2013-04-28 08:03:00,74.2,71.7,29.85,North,-999,0.0,0.0,92,0.00,,,-99.99,105,WeatherLink 5.4,2013-04-28 12:03:00,
2013-04-28 08:04:00,74.2,71.7,29.85,ESE,112,0.0,1.0,92,0.00,,,-99.99,111,WeatherLink 5.4,2013-04-28 12:04:00,
2013-04-28 08:05:00,74.2,71.7,29.85,North,-999,0.0,0.0,92,0.00,,,-99.99,111,WeatherLink 5.4,2013-04-28 12:05:00,
2013-04-28 08:06:00,74.2,71.7,29.85,North,-999,0.0,0.0,92,0.00,,,-99.99,111,WeatherLink 5.4,2013-04-28 12:06:00,
2013-04-28 08:07:00,74.3,71.8,29.85,North,-999,0.0,0.0,92,0.00,,,-99.99,151,WeatherLink 5.4,2013-04-28 12:07:00,
2013-04-28 08:08:00,74.4,71.9,29.85,North,-999,0.0,0.0,92,0.00,,,-99.99,151,WeatherLink 5.4,2013-04-28 12:08:00,
2013-04-28 08:09:00,74.4,71.9,29.85,North,-999,0.0,0.0,92,0.00,,,-99.99,470,WeatherLink 5.4,2013-04-28 12:09:00,
2013-04-28 08:10:00,74.6,72.1,29.85,North,-999,0.0,0.0,92,0.00,,,-99.99,472,WeatherLink 5.4,2013-04-28 12:10:00,
2013-04-28 08:11:00,74.6,72.1,29.85,North,-999,0.0,0.0,92,0.00,,,-99.99,422,WeatherLink 5.4,2013-04-28 12:11:00,
2013-04-28 08:12:00,74.6,72.1,29.85,North,-999,0.0,0.0,92,0.00,,,-99.99,422,WeatherLink 5.4,2013-04-28 12:12:00,
2013-04-28 08:13:00,74.7,72.2,29.85,North,-999,0.0,0.0,92,0.00,,,-99.99,461,WeatherLink 5.4,2013-04-28 12:13:00,
2013-04-28 08:14:00,74.7,72.2,29.85,North,-999,0.0,0.0,92,0.00,,,-99.99,449,WeatherLink 5.4,2013-04-28 12:14:00,
2013-04-28 08:15:00,74.7,72.2,29.86,North,-999,0.0,0.0,92,0.00,,,-99.99,445,WeatherLink 5.4,2013-04-28 12:15:00,
2013-04-28 08:16:00,74.7,72.2,29.86,North,-999,0.0,0.0,92,0.00,,,-99.99,442,WeatherLink 5.4,2013-04-28 12:16:00,
2013-04-28 08:17:00,74.9,72.1,29.86,North,-999,0.0,0.0,91,0.00,,,-99.99,422,WeatherLink 5.4,2013-04-28 12:17:00,
2013-04-28 08:18:00,74.9,72.1,29.86,North,-999,0.0,0.0,91,0.00,,,-99.99,434,WeatherLink 5.4,2013-04-28 12:18:00,
2013-04-28 08:19:00,74.9,72.1,29.86,North,-999,0.0,0.0,91,0.00,,,-99.99,449,WeatherLink 5.4,2013-04-28 12:19:00,
2013-04-28 08:20:00,75.1,72.3,29.86,North,-999,0.0,0.0,91,0.00,,,-99.99,456,WeatherLink 5.4,2013-04-28 12:20:00,
2013-04-28 08:21:00,75.1,72.3,29.86,North,-999,0.0,0.0,91,0.00,,,-99.99,461,WeatherLink 5.4,2013-04-28 12:21:00,
2013-04-28 08:22:00,75.1,72.0,29.86,North,-999,0.0,0.0,90,0.00,,,-99.99,466,WeatherLink 5.4,2013-04-28 12:22:00,
2013-04-28 08:23:00,75.1,72.0,29.86,North,-999,0.0,0.0,90,0.00,,,-99.99,477,WeatherLink 5.4,2013-04-28 12:23:00,
2013-04-28 08:24:00,75.1,71.6,29.86,North,-999,0.0,0.0,89,0.00,,,-99.99,484,WeatherLink 5.4,2013-04-28 12:24:00,
2013-04-28 08:25:00,75.3,71.8,29.86,North,-999,0.0,0.0,89,0.00,,,-99.99,480,WeatherLink 5.4,2013-04-28 12:25:00,
2013-04-28 08:26:00,75.3,71.8,29.86,North,-999,0.0,0.0,89,0.00,,,-99.99,479,WeatherLink 5.4,2013-04-28 12:26:00,
2013-04-28 08:27:00,75.4,71.9,29.86,North,-999,0.0,0.0,89,0.00,,,-99.99,479,WeatherLink 5.4,2013-04-28 12:27:00,
2013-04-28 08:28:00,75.4,71.6,29.86,North,-999,0.0,0.0,88,0.00,,,-99.99,486,WeatherLink 5.4,2013-04-28 12:28:00,
2013-04-28 08:29:00,75.6,71.8,29.86,North,-999,0.0,0.0,88,0.00,,,-99.99,487,WeatherLink 5.4,2013-04-28 12:29:00,
2013-04-28 08:30:00,75.6,71.8,29.86,North,-999,0.0,0.0,88,0.00,,,-99.99,491,WeatherLink 5.4,2013-04-28 12:30:00,
2013-04-28 08:31:00,75.8,71.7,29.86,North,-999,0.0,0.0,87,0.00,,,-99.99,494,WeatherLink 5.4,2013-04-28 12:31:00,
2013-04-28 08:32:00,75.8,71.3,29.86,North,-999,0.0,0.0,86,0.00,,,-99.99,501,WeatherLink 5.4,2013-04-28 12:32:00,
2013-04-28 08:33:00,75.8,71.3,29.86,North,-999,0.0,0.0,86,0.00,,,-99.99,508,WeatherLink 5.4,2013-04-28 12:33:00,
2013-04-28 08:34:00,76.0,71.2,29.86,North,-999,0.0,0.0,85,0.00,,,-99.99,514,WeatherLink 5.4,2013-04-28 12:34:00,
2013-04-28 08:35:00,76.0,71.2,29.86,North,-999,0.0,0.0,85,0.00,,,-99.99,517,WeatherLink 5.4,2013-04-28 12:35:00,
2013-04-28 08:36:00,76.1,71.3,29.86,North,-999,0.0,0.0,85,0.00,,,-99.99,517,WeatherLink 5.4,2013-04-28 12:36:00,
2013-04-28 08:37:00,76.2,71.0,29.86,North,-999,0.0,0.0,84,0.00,,,-99.99,517,WeatherLink 5.4,2013-04-28 12:37:00,
2013-04-28 08:38:00,76.3,71.1,29.86,North,-999,0.0,0.0,84,0.00,,,-99.99,524,WeatherLink 5.4,2013-04-28 12:38:00,
2013-04-28 08:39:00,76.4,71.2,29.86,North,-999,0.0,0.0,84,0.00,,,-99.99,531,WeatherLink 5.4,2013-04-28 12:39:00,
2013-04-28 08:40:00,76.5,70.9,29.86,ESE,112,0.0,1.0,83,0.00,,,-99.99,535,WeatherLink 5.4,2013-04-28 12:40:00,
2013-04-28 08:41:00,76.6,70.7,29.86,North,-999,0.0,0.0,82,0.00,,,-99.99,542,WeatherLink 5.4,2013-04-28 12:41:00,
2013-04-28 08:42:00,76.7,70.4,29.86,North,-999,0.0,0.0,81,0.00,,,-99.99,551,WeatherLink 5.4,2013-04-28 12:42:00,
2013-04-28 08:43:00,76.8,70.5,29.86,North,-999,0.0,0.0,81,0.00,,,-99.99,569,WeatherLink 5.4,2013-04-28 12:43:00,
2013-04-28 08:44:00,76.9,70.3,29.86,ESE,112,0.0,1.0,80,0.00,,,-99.99,600,WeatherLink 5.4,2013-04-28 12:44:00,
2013-04-28 08:45:00,77.0,70.4,29.86,North,-999,0.0,0.0,80,0.00,,,-99.99,614,WeatherLink 5.4,2013-04-28 12:45:00,
2013-04-28 08:46:00,77.1,70.1,29.86,North,-999,0.0,0.0,79,0.00,,,-99.99,611,WeatherLink 5.4,2013-04-28 12:46:00,
2013-04-28 08:47:00,77.2,69.8,29.86,North,-999,0.0,0.0,78,0.00,,,-99.99,611,WeatherLink 5.4,2013-04-28 12:47:00,
2013-04-28 08:48:00,77.4,70.0,29.86,North,-999,0.0,0.0,78,0.00,,,-99.99,611,WeatherLink 5.4,2013-04-28 12:48:00,
2013-04-28 08:49:00,77.4,69.6,29.86,North,-999,0.0,0.0,77,0.00,,,-99.99,611,WeatherLink 5.4,2013-04-28 12:49:00,
2013-04-28 08:50:00,77.5,69.7,29.86,North,-999,0.0,0.0,77,0.00,,,-99.99,611,WeatherLink 5.4,2013-04-28 12:50:00,
2013-04-28 08:51:00,77.6,69.8,29.86,North,-999,0.0,0.0,77,0.00,,,-99.99,611,WeatherLink 5.4,2013-04-28 12:51:00,
2013-04-28 08:52:00,77.7,69.9,29.86,North,-999,0.0,0.0,77,0.00,,,-99.99,644,WeatherLink 5.4,2013-04-28 12:52:00,
2013-04-28 08:53:00,77.8,70.0,29.86,North,-999,0.0,0.0,77,0.00,,,-99.99,631,WeatherLink 5.4,2013-04-28 12:53:00,
2013-04-28 08:54:00,78.0,70.2,29.86,North,-999,0.0,0.0,77,0.00,,,-99.99,635,WeatherLink 5.4,2013-04-28 12:54:00,
2013-04-28 08:55:00,78.1,70.3,29.86,North,-999,0.0,0.0,77,0.00,,,-99.99,655,WeatherLink 5.4,2013-04-28 12:55:00,
2013-04-28 08:56:00,78.2,70.0,29.86,North,-999,0.0,0.0,76,0.00,,,-99.99,655,WeatherLink 5.4,2013-04-28 12:56:00,
2013-04-28 08:57:00,78.3,70.1,29.86,North,-999,0.0,0.0,76,0.00,,,-99.99,655,WeatherLink 5.4,2013-04-28 12:57:00,
2013-04-28 08:58:00,78.4,70.2,29.86,North,-999,0.0,0.0,76,0.00,,,-99.99,655,WeatherLink 5.4,2013-04-28 12:58:00,
2013-04-28 08:59:00,78.5,70.3,29.86,North,-999,0.0,0.0,76,0.00,,,-99.99,674,WeatherLink 5.4,2013-04-28 12:59:00,
2013-04-28 09:00:00,78.5,70.3,29.86,North,-999,0.0,0.0,76,0.00,,,-99.99,674,WeatherLink 5.4,2013-04-28 13:00:00,
2013-04-28 09:01:00,78.6,70.4,29.86,North,-999,0.0,0.0,76,0.00,,,-99.99,683,WeatherLink 5.4,2013-04-28 13:01:00,
2013-04-28 09:02:00,78.7,70.1,29.86,North,-999,0.0,0.0,75,0.00,,,-99.99,649,WeatherLink 5.4,2013-04-28 13:02:00,
2013-04-28 09:03:00,78.8,70.6,29.86,North,-999,0.0,0.0,76,0.00,,,-99.99,649,WeatherLink 5.4,2013-04-28 13:03:00,
2013-04-28 09:04:00,79.0,70.4,29.86,North,-999,0.0,0.0,75,0.00,,,-99.99,649,WeatherLink 5.4,2013-04-28 13:04:00,
2013-04-28 09:05:00,79.1,70.5,29.86,North,-999,0.0,0.0,75,0.00,,,-99.99,813,WeatherLink 5.4,2013-04-28 13:05:00,
2013-04-28 09:06:00,79.2,70.6,29.86,North,-999,0.0,0.0,75,0.00,,,-99.99,804,WeatherLink 5.4,2013-04-28 13:06:00,
2013-04-28 09:07:00,79.4,70.4,29.86,North,-999,0.0,0.0,74,0.00,,,-99.99,804,WeatherLink 5.4,2013-04-28 13:07:00,
2013-04-28 09:08:00,79.6,70.2,29.86,East,90,2.0,6.0,73,0.00,,,-99.99,804,WeatherLink 5.4,2013-04-28 13:08:00,
2013-04-28 09:09:00,79.6,69.8,29.86,ESE,112,5.0,7.0,72,0.00,,,-99.99,808,WeatherLink 5.4,2013-04-28 13:09:00,
2013-04-28 09:10:00,79.6,69.8,29.86,SE,135,4.0,7.0,72,0.00,,,-99.99,799,WeatherLink 5.4,2013-04-28 13:10:00,
2013-04-28 09:11:00,79.6,69.4,29.86,ESE,112,2.0,5.0,71,0.00,,,-99.99,799,WeatherLink 5.4,2013-04-28 13:11:00,
2013-04-28 09:12:00,79.8,69.6,29.86,ESE,112,0.0,1.0,71,0.00,,,-99.99,799,WeatherLink 5.4,2013-04-28 13:12:00,
2013-04-28 09:13:00,79.8,69.6,29.86,North,-999,0.0,0.0,71,0.00,,,-99.99,809,WeatherLink 5.4,2013-04-28 13:13:00,
2013-04-28 09:14:00,79.9,69.7,29.86,North,-999,0.0,0.0,71,0.00,,,-99.99,809,WeatherLink 5.4,2013-04-28 13:14:00,
2013-04-28 09:15:00,79.9,69.7,29.87,North,-999,0.0,0.0,71,0.00,,,-99.99,809,WeatherLink 5.4,2013-04-28 13:15:00,
2013-04-28 09:16:00,80.0,70.2,29.87,North,-999,0.0,0.0,72,0.00,,,-99.99,846,WeatherLink 5.4,2013-04-28 13:16:00,
2013-04-28 09:17:00,80.1,70.3,29.87,North,-999,0.0,0.0,72,0.00,,,-99.99,846,WeatherLink 5.4,2013-04-28 13:17:00,
2013-04-28 09:18:00,80.3,70.4,29.87,North,-999,0.0,0.0,72,0.00,,,-99.99,235,WeatherLink 5.4,2013-04-28 13:18:00,
2013-04-28 09:19:00,80.3,70.0,29.87,North,-999,0.0,0.0,71,0.00,,,-99.99,255,WeatherLink 5.4,2013-04-28 13:19:00,
2013-04-28 09:20:00,80.3,70.0,29.87,North,-999,0.0,0.0,71,0.00,,,-99.99,255,WeatherLink 5.4,2013-04-28 13:20:00,
2013-04-28 09:21:00,80.4,70.1,29.87,North,-999,0.0,0.0,71,0.00,,,-99.99,255,WeatherLink 5.4,2013-04-28 13:21:00,
2013-04-28 09:22:00,80.5,70.6,29.87,North,-999,0.0,0.0,72,0.00,,,-99.99,255,WeatherLink 5.4,2013-04-28 13:22:00,
2013-04-28 09:23:00,80.5,70.2,29.87,North,-999,0.0,0.0,71,0.00,,,-99.99,289,WeatherLink 5.4,2013-04-28 13:23:00,
2013-04-28 09:24:00,80.7,70.4,29.87,North,-999,0.0,0.0,71,0.00,,,-99.99,294,WeatherLink 5.4,2013-04-28 13:24:00,
2013-04-28 09:25:00,80.7,70.8,29.87,North,-999,0.0,0.0,72,0.00,,,-99.99,292,WeatherLink 5.4,2013-04-28 13:25:00,
2013-04-28 09:26:00,80.7,70.4,29.87,North,-999,0.0,0.0,71,0.00,,,-99.99,262,WeatherLink 5.4,2013-04-28 13:26:00,
2013-04-28 09:27:00,80.7,70.0,29.87,North,-999,0.0,0.0,70,0.00,,,-99.99,262,WeatherLink 5.4,2013-04-28 13:27:00,
2013-04-28 09:28:00,80.7,70.0,29.87,North,-999,0.0,0.0,70,0.00,,,-99.99,307,WeatherLink 5.4,2013-04-28 13:28:00,
2013-04-28 09:29:00,80.7,70.0,29.87,North,-999,0.0,0.0,70,0.00,,,-99.99,318,WeatherLink 5.4,2013-04-28 13:29:00,
2013-04-28 09:30:00,80.7,70.4,29.87,North,-999,0.0,0.0,71,0.00,,,-99.99,318,WeatherLink 5.4,2013-04-28 13:30:00,
2013-04-28 09:31:00,80.7,70.4,29.87,North,-999,0.0,0.0,71,0.00,,,-99.99,318,WeatherLink 5.4,2013-04-28 13:31:00,
2013-04-28 09:32:00,80.8,69.7,29.87,North,-999,0.0,0.0,69,0.00,,,-99.99,318,WeatherLink 5.4,2013-04-28 13:32:00,
2013-04-28 09:33:00,80.9,70.2,29.87,North,-999,0.0,0.0,70,0.00,,,-99.99,318,WeatherLink 5.4,2013-04-28 13:33:00,
2013-04-28 09:34:00,80.9,69.8,29.87,North,-999,0.0,0.0,69,0.00,,,-99.99,318,WeatherLink 5.4,2013-04-28 13:34:00,
2013-04-28 09:35:00,80.9,69.8,29.87,East,90,0.0,3.0,69,0.00,,,-99.99,318,WeatherLink 5.4,2013-04-28 13:35:00,
2013-04-28 09:36:00,80.9,69.8,29.87,East,90,0.0,2.0,69,0.00,,,-99.99,318,WeatherLink 5.4,2013-04-28 13:36:00,
2013-04-28 09:37:00,80.9,69.3,29.87,North,-999,0.0,0.0,68,0.00,,,-99.99,892,WeatherLink 5.4,2013-04-28 13:37:00,
2013-04-28 09:38:00,80.9,69.3,29.87,ESE,112,2.0,6.0,68,0.00,,,-99.99,875,WeatherLink 5.4,2013-04-28 13:38:00,
2013-04-28 09:39:00,81.1,69.5,29.87,ESE,112,1.0,5.0,68,0.00,,,-99.99,850,WeatherLink 5.4,2013-04-28 13:39:00,
2013-04-28 09:40:00,81.1,70.0,29.87,North,-999,0.0,0.0,69,0.00,,,-99.99,829,WeatherLink 5.4,2013-04-28 13:40:00,
2013-04-28 09:41:00,81.2,70.1,29.87,East,90,0.0,1.0,69,0.00,,,-99.99,823,WeatherLink 5.4,2013-04-28 13:41:00,
2013-04-28 09:42:00,81.2,69.6,29.87,East,90,1.0,3.0,68,0.00,,,-99.99,823,WeatherLink 5.4,2013-04-28 13:42:00,
2013-04-28 09:43:00,81.2,69.2,29.87,East,90,0.0,1.0,67,0.00,,,-99.99,782,WeatherLink 5.4,2013-04-28 13:43:00,
2013-04-28 09:44:00,81.2,69.2,29.87,North,-999,0.0,0.0,67,0.00,,,-99.99,758,WeatherLink 5.4,2013-04-28 13:44:00,
2013-04-28 09:45:00,81.4,69.4,29.63,East,90,1.0,5.0,67,0.00,,,-99.99,848,WeatherLink 5.4,2013-04-28 13:45:00,
2013-04-28 09:46:00,81.4,69.4,29.63,East,90,1.0,5.0,67,0.00,,,-99.99,860,WeatherLink 5.4,2013-04-28 13:46:00,
2013-04-28 09:47:00,81.4,69.8,29.63,East,90,1.0,5.0,68,0.00,,,-99.99,876,WeatherLink 5.4,2013-04-28 13:47:00,
2013-04-28 09:48:00,81.6,69.1,29.63,ESE,112,5.0,8.0,66,0.00,,,-99.99,897,WeatherLink 5.4,2013-04-28 13:48:00,
2013-04-28 09:49:00,81.6,69.1,29.63,East,90,1.0,5.0,66,0.00,,,-99.99,918,WeatherLink 5.4,2013-04-28 13:49:00,
2013-04-28 09:50:00,81.6,69.6,29.63,East,90,1.0,4.0,67,0.00,,,-99.99,926,WeatherLink 5.4,2013-04-28 13:50:00,
2013-04-28 09:51:00,81.7,69.7,29.63,North,0,1.0,3.0,67,0.00,,,-99.99,922,WeatherLink 5.4,2013-04-28 13:51:00,
2013-04-28 09:52:00,81.8,69.8,29.63,ENE,67,1.0,4.0,67,0.00,,,-99.99,922,WeatherLink 5.4,2013-04-28 13:52:00,
2013-04-28 09:53:00,81.9,69.9,29.63,ENE,67,0.0,2.0,67,0.00,,,-99.99,883,WeatherLink 5.4,2013-04-28 13:53:00,
2013-04-28 09:54:00,82.0,69.5,29.63,ENE,67,0.0,1.0,66,0.00,,,-99.99,882,WeatherLink 5.4,2013-04-28 13:54:00,
2013-04-28 09:55:00,82.2,69.7,29.63,North,-999,0.0,0.0,66,0.00,,,-99.99,871,WeatherLink 5.4,2013-04-28 13:55:00,
2013-04-28 09:56:00,82.2,69.3,29.63,North,-999,0.0,0.0,65,0.00,,,-99.99,866,WeatherLink 5.4,2013-04-28 13:56:00,
2013-04-28 09:57:00,82.4,69.4,29.63,North,-999,0.0,0.0,65,0.00,,,-99.99,857,WeatherLink 5.4,2013-04-28 13:57:00,
2013-04-28 09:58:00,82.4,69.4,29.63,ENE,67,0.0,1.0,65,0.00,,,-99.99,859,WeatherLink 5.4,2013-04-28 13:58:00,
2013-04-28 09:59:00,82.5,69.5,29.63,North,-999,0.0,0.0,65,0.00,,,-99.99,853,WeatherLink 5.4,2013-04-28 13:59:00,
2013-04-28 10:00:00,82.6,69.2,29.86,East,90,4.0,8.0,64,0.00,,,-99.99,857,WeatherLink 5.4,2013-04-28 14:00:00,
2013-04-28 10:01:00,82.6,69.2,29.86,ESE,112,4.0,6.0,64,0.00,,,-99.99,852,WeatherLink 5.4,2013-04-28 14:01:00,
2013-04-28 10:02:00,82.6,69.2,29.86,East,90,2.0,7.0,64,0.00,,,-99.99,846,WeatherLink 5.4,2013-04-28 14:02:00,
2013-04-28 10:03:00,82.6,69.2,29.86,ENE,67,1.0,2.0,64,0.00,,,-99.99,863,WeatherLink 5.4,2013-04-28 14:03:00,
2013-04-28 10:04:00,82.6,69.2,29.86,North,-999,0.0,0.0,64,0.00,,,-99.99,904,WeatherLink 5.4,2013-04-28 14:04:00,
2013-04-28 10:05:00,82.8,69.4,29.86,North,-999,0.0,0.0,64,0.00,,,-99.99,908,WeatherLink 5.4,2013-04-28 14:05:00,
2013-04-28 10:06:00,82.9,69.9,29.86,North,-999,0.0,0.0,65,0.00,,,-99.99,934,WeatherLink 5.4,2013-04-28 14:06:00,
2013-04-28 10:07:00,83.1,70.1,29.86,North,-999,0.0,0.0,65,0.00,,,-99.99,947,WeatherLink 5.4,2013-04-28 14:07:00,
2013-04-28 10:08:00,83.2,69.8,29.86,North,-999,0.0,0.0,64,0.00,,,-99.99,930,WeatherLink 5.4,2013-04-28 14:08:00,
2013-04-28 10:09:00,83.2,69.8,29.86,ENE,67,2.0,5.0,64,0.00,,,-99.99,904,WeatherLink 5.4,2013-04-28 14:09:00,
2013-04-28 10:10:00,83.4,69.9,29.86,East,90,3.0,5.0,64,0.00,,,-99.99,894,WeatherLink 5.4,2013-04-28 14:10:00,
2013-04-28 10:11:00,83.4,69.5,29.86,ESE,112,3.0,6.0,63,0.00,,,-99.99,889,WeatherLink 5.4,2013-04-28 14:11:00,
2013-04-28 10:12:00,83.4,69.0,29.86,ESE,112,1.0,3.0,62,0.00,,,-99.99,889,WeatherLink 5.4,2013-04-28 14:12:00,
2013-04-28 10:13:00,83.4,69.0,29.86,ESE,112,1.0,3.0,62,0.00,,,-99.99,900,WeatherLink 5.4,2013-04-28 14:13:00,
2013-04-28 10:14:00,83.4,69.0,29.86,ESE,112,2.0,4.0,62,0.00,,,-99.99,918,WeatherLink 5.4,2013-04-28 14:14:00,
2013-04-28 10:15:00,83.4,69.5,29.86,North,-999,0.0,0.0,63,0.00,,,-99.99,957,WeatherLink 5.4,2013-04-28 14:15:00,
2013-04-28 10:16:00,83.4,69.5,29.86,East,90,0.0,3.0,63,0.00,,,-99.99,957,WeatherLink 5.4,2013-04-28 14:16:00,
2013-04-28 10:17:00,83.4,69.0,29.86,North,-999,0.0,0.0,62,0.00,,,-99.99,957,WeatherLink 5.4,2013-04-28 14:17:00,
2013-04-28 10:18:00,83.4,69.0,29.86,North,-999,0.0,0.0,62,0.00,,,-99.99,957,WeatherLink 5.4,2013-04-28 14:18:00,
2013-04-28 10:19:00,83.6,69.2,29.86,East,90,5.0,9.0,62,0.00,,,-99.99,1054,WeatherLink 5.4,2013-04-28 14:19:00,
2013-04-28 10:20:00,83.5,69.1,29.86,SE,135,5.0,8.0,62,0.00,,,-99.99,1017,WeatherLink 5.4,2013-04-28 14:20:00,
2013-04-28 10:21:00,83.4,69.0,29.86,ESE,112,5.0,7.0,62,0.00,,,-99.99,1017,WeatherLink 5.4,2013-04-28 14:21:00,
2013-04-28 10:22:00,83.4,69.0,29.86,East,90,1.0,3.0,62,0.00,,,-99.99,1017,WeatherLink 5.4,2013-04-28 14:22:00,
2013-04-28 10:23:00,83.4,69.0,29.86,ESE,112,4.0,7.0,62,0.00,,,-99.99,350,WeatherLink 5.4,2013-04-28 14:23:00,
2013-04-28 10:24:00,83.3,68.9,29.86,ESE,112,1.0,5.0,62,0.00,,,-99.99,396,WeatherLink 5.4,2013-04-28 14:24:00,
2013-04-28 10:25:00,83.2,68.8,29.86,North,-999,0.0,0.0,62,0.00,,,-99.99,396,WeatherLink 5.4,2013-04-28 14:25:00,
2013-04-28 10:26:00,83.2,69.3,29.86,East,90,0.0,2.0,63,0.00,,,-99.99,396,WeatherLink 5.4,2013-04-28 14:26:00,
2013-04-28 10:27:00,83.2,69.3,29.86,ESE,112,1.0,3.0,63,0.00,,,-99.99,396,WeatherLink 5.4,2013-04-28 14:27:00,
2013-04-28 10:37:00,83.2,68.8,29.86,East,90,1.0,6.0,62,0.00,,,-99.99,1105,WeatherLink 5.4,2013-04-28 14:37:00,
2013-04-28 10:43:00,83.4,69.9,29.87,East,90,1.0,5.0,64,0.00,,,-99.99,385,WeatherLink 5.4,2013-04-28 14:43:00,
2013-04-28 10:49:00,83.4,69.9,29.87,East,90,2.0,10.0,64,0.00,,,-99.99,280,WeatherLink 5.4,2013-04-28 14:49:00,
2013-04-28 10:55:00,83.2,70.2,29.86,East,90,0.0,4.0,65,0.00,,,-99.99,1179,WeatherLink 5.4,2013-04-28 14:55:00,
2013-04-28 11:01:00,83.8,70.3,29.86,ESE,112,3.0,8.0,64,0.00,,,-99.99,273,WeatherLink 5.4,2013-04-28 15:01:00,
2013-04-28 11:07:00,83.4,70.4,29.86,North,-999,0.0,0.0,65,0.00,,,-99.99,239,WeatherLink 5.4,2013-04-28 15:07:00,
2013-04-28 11:13:00,83.2,70.2,29.86,North,-999,0.0,0.0,65,0.00,,,-99.99,1195,WeatherLink 5.4,2013-04-28 15:13:00,
2013-04-28 11:19:00,83.6,69.2,29.86,East,90,6.0,8.0,62,0.00,,,-99.99,183,WeatherLink 5.4,2013-04-28 15:19:00,
2013-04-28 11:25:00,83.3,69.4,29.86,ENE,67,1.0,4.0,63,0.00,,,-99.99,202,WeatherLink 5.4,2013-04-28 15:25:00,
2013-04-28 11:31:00,83.0,69.1,29.86,North,0,1.0,5.0,63,0.00,,,-99.99,236,WeatherLink 5.4,2013-04-28 15:31:00,
2013-04-28 11:37:00,83.4,69.5,29.86,East,90,3.0,10.0,63,0.00,,,-99.99,236,WeatherLink 5.4,2013-04-28 15:37:00,
2013-04-28 11:42:00,83.9,70.4,29.86,East,90,5.0,13.0,64,0.00,,,-99.99,1031,WeatherLink 5.4,2013-04-28 15:42:00,
2013-04-28 11:48:00,84.0,70.0,29.86,East,90,2.0,5.0,63,0.00,,,-99.99,991,WeatherLink 5.4,2013-04-28 15:48:00,
2013-04-28 11:54:00,84.1,69.7,29.85,East,90,3.0,9.0,62,0.00,,,-99.99,982,WeatherLink 5.4,2013-04-28 15:54:00,
2013-04-28 12:00:00,83.8,69.4,29.85,East,90,0.0,10.0,62,0.00,,,-99.99,1001,WeatherLink 5.4,2013-04-28 16:00:00,
2013-04-28 12:05:00,83.8,69.9,29.85,East,90,1.0,7.0,63,0.00,,,-99.99,980,WeatherLink 5.4,2013-04-28 16:05:00,
2013-04-28 12:10:00,84.0,69.6,29.85,East,90,1.0,5.0,62,0.00,,,-99.99,994,WeatherLink 5.4,2013-04-28 16:10:00,
2013-04-28 12:15:00,84.1,69.7,29.85,ENE,67,3.0,7.0,62,0.00,,,-99.99,984,WeatherLink 5.4,2013-04-28 16:15:00,
2013-04-28 12:21:00,84.1,70.1,29.85,North,0,2.0,7.0,63,0.00,,,-99.99,1012,WeatherLink 5.4,2013-04-28 16:21:00,
2013-04-28 12:27:00,84.1,68.7,29.84,East,90,6.0,10.0,60,0.00,,,-99.99,1017,WeatherLink 5.4,2013-04-28 16:27:00,
2013-04-28 12:32:00,84.3,68.9,29.84,East,90,5.0,8.0,60,0.00,,,-99.99,723,WeatherLink 5.4,2013-04-28 16:32:00,
2013-04-28 12:37:00,84.1,69.2,29.84,ENE,67,2.0,5.0,61,0.00,,,-99.99,1052,WeatherLink 5.4,2013-04-28 16:37:00,
2013-04-28 12:43:00,84.1,69.7,29.84,East,90,2.0,8.0,62,0.00,,,-99.99,1098,WeatherLink 5.4,2013-04-28 16:43:00,
2013-04-28 12:49:00,84.0,68.1,29.84,ESE,112,7.0,14.0,59,0.00,,,-99.99,1123,WeatherLink 5.4,2013-04-28 16:49:00,
2013-04-28 12:55:00,83.8,67.9,29.84,East,90,7.0,10.0,59,0.00,,,-99.99,252,WeatherLink 5.4,2013-04-28 16:55:00,
2013-04-28 13:01:00,83.2,68.8,29.84,North,-999,0.0,0.0,62,0.00,,,-99.99,278,WeatherLink 5.4,2013-04-28 17:01:00,
2013-04-28 13:07:00,82.9,69.5,29.84,East,90,1.0,6.0,64,0.00,,,-99.99,230,WeatherLink 5.4,2013-04-28 17:07:00,
2013-04-28 13:13:00,82.4,69.9,29.83,North,-999,0.0,0.0,66,0.00,,,-99.99,262,WeatherLink 5.4,2013-04-28 17:13:00,
2013-04-28 13:18:00,82.4,70.3,29.83,East,90,8.0,11.0,67,0.00,,,-99.99,350,WeatherLink 5.4,2013-04-28 17:18:00,
2013-04-28 13:23:00,82.0,70.8,29.83,East,90,3.0,7.0,69,0.00,,,-99.99,343,WeatherLink 5.4,2013-04-28 17:23:00,
2013-04-28 13:28:00,81.8,71.1,29.83,NE,45,0.0,3.0,70,0.00,,,-99.99,382,WeatherLink 5.4,2013-04-28 17:28:00,
2013-04-28 13:36:00,81.8,70.6,29.83,East,90,1.0,6.0,69,0.00,,,-99.99,408,WeatherLink 5.4,2013-04-28 17:36:00,
2013-04-28 13:37:00,81.8,71.1,29.83,North,-999,0.0,0.0,70,0.00,,,-99.99,417,WeatherLink 5.4,2013-04-28 17:37:00,
2013-04-28 13:38:00,81.8,71.1,29.83,East,90,3.0,10.0,70,0.00,,,-99.99,428,WeatherLink 5.4,2013-04-28 17:38:00,
2013-04-28 13:39:00,81.8,70.6,29.83,ESE,112,1.0,5.0,69,0.00,,,-99.99,433,WeatherLink 5.4,2013-04-28 17:39:00,
2013-04-28 13:40:00,81.8,70.2,29.83,ENE,67,5.0,8.0,68,0.00,,,-99.99,431,WeatherLink 5.4,2013-04-28 17:40:00,
2013-04-28 13:41:00,81.8,69.8,29.83,East,90,5.0,8.0,67,0.00,,,-99.99,433,WeatherLink 5.4,2013-04-28 17:41:00,
2013-04-28 13:42:00,81.8,69.8,29.83,East,90,3.0,10.0,67,0.00,,,-99.99,445,WeatherLink 5.4,2013-04-28 17:42:00,
2013-04-28 13:43:00,81.6,69.1,29.83,East,90,5.0,11.0,66,0.00,,,-99.99,468,WeatherLink 5.4,2013-04-28 17:43:00,
2013-04-28 13:44:00,81.6,69.1,29.83,East,90,5.0,14.0,66,0.00,,,-99.99,482,WeatherLink 5.4,2013-04-28 17:44:00,
2013-04-28 13:45:00,81.6,69.1,29.82,East,90,5.0,8.0,66,0.00,,,-99.99,486,WeatherLink 5.4,2013-04-28 17:45:00,
2013-04-28 13:46:00,81.6,69.6,29.82,East,90,2.0,7.0,67,0.00,,,-99.99,494,WeatherLink 5.4,2013-04-28 17:46:00,
2013-04-28 13:47:00,81.6,69.1,29.82,ESE,112,0.0,2.0,66,0.00,,,-99.99,494,WeatherLink 5.4,2013-04-28 17:47:00,
2013-04-28 13:48:00,81.6,69.1,29.82,East,90,4.0,11.0,66,0.00,,,-99.99,505,WeatherLink 5.4,2013-04-28 17:48:00,
2013-04-28 13:49:00,81.6,69.1,29.82,East,90,7.0,13.0,66,0.00,,,-99.99,524,WeatherLink 5.4,2013-04-28 17:49:00,
2013-04-28 13:50:00,81.6,69.1,29.82,East,90,7.0,13.0,66,0.00,,,-99.99,524,WeatherLink 5.4,2013-04-28 17:50:00,
2013-04-28 13:51:00,81.6,69.1,29.82,East,90,4.0,8.0,66,0.00,,,-99.99,524,WeatherLink 5.4,2013-04-28 17:51:00,
2013-04-28 13:52:00,81.6,69.1,29.82,East,90,5.0,12.0,66,0.00,,,-99.99,728,WeatherLink 5.4,2013-04-28 17:52:00,
2013-04-28 13:53:00,81.6,69.6,29.82,East,90,5.0,12.0,67,0.00,,,-99.99,720,WeatherLink 5.4,2013-04-28 17:53:00,
2013-04-28 13:54:00,81.6,69.6,29.82,East,90,3.0,6.0,67,0.00,,,-99.99,720,WeatherLink 5.4,2013-04-28 17:54:00,
2013-04-28 13:55:00,81.6,70.0,29.82,East,90,0.0,1.0,68,0.00,,,-99.99,649,WeatherLink 5.4,2013-04-28 17:55:00,
2013-04-28 13:56:00,81.7,70.5,29.82,NNE,22,1.0,5.0,69,0.00,,,-99.99,649,WeatherLink 5.4,2013-04-28 17:56:00,
2013-04-28 13:57:00,81.7,70.5,29.82,East,90,2.0,12.0,69,0.00,,,-99.99,569,WeatherLink 5.4,2013-04-28 17:57:00,
2013-04-28 13:58:00,81.6,70.4,29.82,ENE,67,1.0,10.0,69,0.00,,,-99.99,544,WeatherLink 5.4,2013-04-28 17:58:00,
2013-04-28 13:59:00,81.6,70.4,29.82,East,90,1.0,6.0,69,0.00,,,-99.99,500,WeatherLink 5.4,2013-04-28 17:59:00,
2013-04-28 14:00:00,81.6,70.4,29.82,East,90,0.0,2.0,69,0.00,,,-99.99,489,WeatherLink 5.4,2013-04-28 18:00:00,
2013-04-28 14:01:00,81.6,70.4,29.82,ESE,112,4.0,8.0,69,0.00,,,-99.99,512,WeatherLink 5.4,2013-04-28 18:01:00,
2013-04-28 14:02:00,81.4,69.8,29.82,East,90,4.0,10.0,68,0.00,,,-99.99,517,WeatherLink 5.4,2013-04-28 18:02:00,
2013-04-28 14:03:00,81.4,69.8,29.82,North,-999,0.0,0.0,68,0.00,,,-99.99,519,WeatherLink 5.4,2013-04-28 18:03:00,
2013-04-28 14:04:00,81.4,69.8,29.82,North,-999,0.0,0.0,68,0.00,,,-99.99,524,WeatherLink 5.4,2013-04-28 18:04:00,
2013-04-28 14:05:00,81.4,69.8,29.82,North,-999,0.0,0.0,68,0.00,,,-99.99,524,WeatherLink 5.4,2013-04-28 18:05:00,
2013-04-28 14:06:00,81.4,68.9,29.82,NNE,22,1.0,7.0,66,0.00,,,-99.99,521,WeatherLink 5.4,2013-04-28 18:06:00,
2013-04-28 14:07:00,81.4,68.9,29.82,ESE,112,3.0,8.0,66,0.00,,,-99.99,517,WeatherLink 5.4,2013-04-28 18:07:00,
2013-04-28 14:17:00,81.3,68.0,29.82,ENE,67,3.0,11.0,64,0.00,,,-99.99,535,WeatherLink 5.4,2013-04-28 18:17:00,
2013-04-28 14:22:00,82.8,67.5,29.81,East,90,3.0,8.0,60,0.00,,,-99.99,544,WeatherLink 5.4,2013-04-28 18:22:00,
2013-04-28 14:28:00,83.2,68.3,29.80,East,90,7.0,12.0,61,0.00,,,-99.99,978,WeatherLink 5.4,2013-04-28 18:28:00,
2013-04-28 14:33:00,83.2,68.3,29.80,ENE,67,3.0,6.0,61,0.00,,,-99.99,501,WeatherLink 5.4,2013-04-28 18:33:00,
2013-04-28 14:38:00,83.4,69.5,29.80,East,90,3.0,11.0,63,0.00,,,-99.99,398,WeatherLink 5.4,2013-04-28 18:38:00,
2013-04-28 14:44:00,83.1,68.7,29.80,East,90,7.0,10.0,62,0.00,,,-99.99,421,WeatherLink 5.4,2013-04-28 18:44:00,
2013-04-28 14:49:00,82.8,69.4,29.80,ENE,67,2.0,8.0,64,0.00,,,-99.99,663,WeatherLink 5.4,2013-04-28 18:49:00,
2013-04-28 14:56:00,82.8,68.9,29.78,East,90,4.0,8.0,63,0.00,,,-99.99,896,WeatherLink 5.4,2013-04-28 18:56:00,
2013-04-28 15:01:00,83.0,68.6,29.78,East,90,3.0,10.0,62,0.00,,,-99.99,781,WeatherLink 5.4,2013-04-28 19:01:00,
2013-04-28 15:07:00,83.0,68.6,29.78,ENE,67,4.0,9.0,62,0.00,,,-99.99,781,WeatherLink 5.4,2013-04-28 19:07:00,
2013-04-28 15:12:00,83.0,68.6,29.78,East,90,7.0,13.0,62,0.00,,,-99.99,836,WeatherLink 5.4,2013-04-28 19:12:00,
2013-04-28 15:17:00,83.2,68.8,29.78,North,-999,0.0,0.0,62,0.00,,,-99.99,836,WeatherLink 5.4,2013-04-28 19:17:00,
2013-04-28 15:23:00,83.4,68.5,29.78,ESE,112,6.0,9.0,61,0.00,,,-99.99,259,WeatherLink 5.4,2013-04-28 19:23:00,
2013-04-28 15:29:00,83.0,68.6,29.78,East,90,5.0,11.0,62,0.00,,,-99.99,443,WeatherLink 5.4,2013-04-28 19:29:00,
2013-04-28 15:34:00,82.4,69.0,29.78,ESE,112,1.0,3.0,64,0.00,,,-99.99,296,WeatherLink 5.4,2013-04-28 19:34:00,
2013-04-28 15:40:00,82.2,68.8,29.78,ENE,67,1.0,5.0,64,0.00,,,-99.99,290,WeatherLink 5.4,2013-04-28 19:40:00,
2013-04-28 15:45:00,82.0,69.1,29.78,East,90,2.0,7.0,65,0.00,,,-99.99,278,WeatherLink 5.4,2013-04-28 19:45:00,
2013-04-28 15:51:00,82.0,69.5,29.78,East,90,2.0,4.0,66,0.00,,,-99.99,411,WeatherLink 5.4,2013-04-28 19:51:00,
2013-04-28 15:56:00,82.0,70.0,29.78,North,-999,0.0,0.0,67,0.00,,,-99.99,600,WeatherLink 5.4,2013-04-28 19:56:00,
2013-04-28 16:01:00,82.2,69.7,29.78,East,90,3.0,10.0,66,0.00,,,-99.99,781,WeatherLink 5.4,2013-04-28 20:01:00,
2013-04-28 16:07:00,82.4,69.9,29.78,East,90,3.0,8.0,66,0.00,,,-99.99,653,WeatherLink 5.4,2013-04-28 20:07:00,
2013-04-28 16:13:00,82.4,69.9,29.78,ENE,67,7.0,10.0,66,0.00,,,-99.99,169,WeatherLink 5.4,2013-04-28 20:13:00,
2013-04-28 16:19:00,81.9,69.4,29.78,ENE,67,3.0,8.0,66,0.00,,,-99.99,329,WeatherLink 5.4,2013-04-28 20:19:00,
2013-04-28 16:25:00,81.6,70.0,29.78,East,90,1.0,3.0,68,0.00,,,-99.99,113,WeatherLink 5.4,2013-04-28 20:25:00,
2013-04-28 16:31:00,81.4,69.8,29.78,North,0,3.0,8.0,68,0.00,,,-99.99,85,WeatherLink 5.4,2013-04-28 20:31:00,
2013-04-28 16:36:00,81.2,69.6,29.78,East,90,4.0,10.0,68,0.00,,,-99.99,95,WeatherLink 5.4,2013-04-28 20:36:00,
2013-04-28 16:42:00,81.1,70.0,29.78,ESE,112,0.0,4.0,69,0.00,,,-99.99,93,WeatherLink 5.4,2013-04-28 20:42:00,
2013-04-28 16:47:00,80.9,69.3,29.78,NNE,22,1.0,6.0,68,0.00,,,-99.99,82,WeatherLink 5.4,2013-04-28 20:47:00,
2013-04-28 16:53:00,80.7,69.2,29.78,North,-999,0.0,0.0,68,0.00,,,-99.99,55,WeatherLink 5.4,2013-04-28 20:53:00,
2013-04-28 16:58:00,80.7,69.6,29.78,East,90,3.0,6.0,69,0.00,,,-99.99,49,WeatherLink 5.4,2013-04-28 20:58:00,
2013-04-28 17:04:00,80.3,69.2,29.78,North,-999,0.0,0.0,69,0.00,,,-99.99,42,WeatherLink 5.4,2013-04-28 21:04:00,
2013-04-28 17:10:00,80.1,68.6,29.78,East,90,3.0,10.0,68,0.00,,,-99.99,40,WeatherLink 5.4,2013-04-28 21:10:00,
2013-04-28 17:16:00,79.9,68.4,29.78,NE,45,1.0,5.0,68,0.00,,,-99.99,37,WeatherLink 5.4,2013-04-28 21:16:00,
2013-04-28 17:22:00,79.9,68.4,29.78,ESE,112,2.0,8.0,68,0.00,,,-99.99,32,WeatherLink 5.4,2013-04-28 21:22:00,
2013-04-28 17:27:00,79.9,68.4,29.79,North,-999,0.0,0.0,68,0.00,,,-99.99,30,WeatherLink 5.4,2013-04-28 21:27:00,
2013-04-28 17:33:00,79.9,68.8,29.79,East,90,0.0,1.0,69,0.00,,,-99.99,32,WeatherLink 5.4,2013-04-28 21:33:00,
2013-04-28 17:38:00,79.8,69.1,29.79,North,-999,0.0,0.0,70,0.00,,,-99.99,32,WeatherLink 5.4,2013-04-28 21:38:00,
2013-04-28 17:44:00,79.8,69.1,29.79,North,-999,0.0,0.0,70,0.00,,,-99.99,30,WeatherLink 5.4,2013-04-28 21:44:00,
2013-04-28 17:49:00,79.6,68.1,29.79,East,90,2.0,6.0,68,0.00,,,-99.99,28,WeatherLink 5.4,2013-04-28 21:49:00,
2013-04-28 17:55:00,79.6,68.1,29.80,North,-999,0.0,0.0,68,0.00,,,-99.99,26,WeatherLink 5.4,2013-04-28 21:55:00,
2013-04-28 18:00:00,79.6,68.5,29.80,North,-999,0.0,0.0,69,0.00,,,-99.99,21,WeatherLink 5.4,2013-04-28 22:00:00,
2013-04-28 18:06:00,79.6,69.0,29.80,North,-999,0.0,0.0,70,0.00,,,-99.99,21,WeatherLink 5.4,2013-04-28 22:06:00,
2013-04-28 18:11:00,79.6,69.0,29.80,North,-999,0.0,0.0,70,0.00,,,-99.99,18,WeatherLink 5.4,2013-04-28 22:11:00,
2013-04-28 18:16:00,79.6,69.4,29.80,North,-999,0.0,0.0,71,0.00,,,-99.99,14,WeatherLink 5.4,2013-04-28 22:16:00,
2013-04-28 18:22:00,79.6,69.4,29.80,North,-999,0.0,0.0,71,0.00,,,-99.99,14,WeatherLink 5.4,2013-04-28 22:22:00,
2013-04-28 18:28:00,79.6,69.4,29.80,East,90,2.0,5.0,71,0.00,,,-99.99,19,WeatherLink 5.4,2013-04-28 22:28:00,
2013-04-28 18:33:00,79.4,69.2,29.80,ESE,112,1.0,6.0,71,0.00,,,-99.99,25,WeatherLink 5.4,2013-04-28 22:33:00,
2013-04-28 18:39:00,79.4,69.2,29.80,East,90,1.0,6.0,71,0.00,,,-99.99,16,WeatherLink 5.4,2013-04-28 22:39:00,
2013-04-28 18:44:00,79.4,69.6,29.80,North,-999,0.0,0.0,72,0.00,,,-99.99,11,WeatherLink 5.4,2013-04-28 22:44:00,
2013-04-28 18:50:00,79.4,69.6,29.80,North,-999,0.0,0.0,72,0.00,,,-99.99,0,WeatherLink 5.4,2013-04-28 22:50:00,
2013-04-28 18:55:00,79.4,69.6,29.80,East,90,3.0,6.0,72,0.00,,,-99.99,0,WeatherLink 5.4,2013-04-28 22:55:00,
2013-04-28 19:01:00,79.2,69.4,29.80,North,-999,0.0,0.0,72,0.00,,,-99.99,0,WeatherLink 5.4,2013-04-28 23:01:00,
2013-04-28 19:06:00,79.2,69.4,29.80,ENE,67,1.0,6.0,72,0.00,,,-99.99,0,WeatherLink 5.4,2013-04-28 23:06:00,
2013-04-28 19:12:00,79.0,69.2,29.81,North,-999,0.0,0.0,72,0.00,,,-99.99,0,WeatherLink 5.4,2013-04-28 23:12:00,
2013-04-28 19:17:00,79.0,69.2,29.81,North,-999,0.0,0.0,72,0.00,,,-99.99,0,WeatherLink 5.4,2013-04-28 23:17:00,
2013-04-28 19:23:00,79.0,69.6,29.81,North,-999,0.0,0.0,73,0.00,,,-99.99,0,WeatherLink 5.4,2013-04-28 23:23:00,
2013-04-28 19:28:00,79.0,69.6,29.81,North,-999,0.0,0.0,73,0.00,,,-99.99,0,WeatherLink 5.4,2013-04-28 23:28:00,
2013-04-28 19:34:00,79.0,69.6,29.81,North,-999,0.0,0.0,73,0.00,,,-99.99,0,WeatherLink 5.4,2013-04-28 23:34:00,
2013-04-28 19:39:00,79.0,69.6,29.82,North,-999,0.0,0.0,73,0.00,,,-99.99,0,WeatherLink 5.4,2013-04-28 23:39:00,
2013-04-28 19:45:00,79.0,69.6,29.82,North,-999,0.0,0.0,73,0.00,,,-99.99,0,WeatherLink 5.4,2013-04-28 23:45:00,
2013-04-28 19:50:00,78.8,69.4,29.82,North,-999,0.0,0.0,73,0.00,,,-99.99,0,WeatherLink 5.4,2013-04-28 23:50:00,
2013-04-28 19:56:00,78.8,69.4,29.82,North,-999,0.0,0.0,73,0.00,,,-99.99,0,WeatherLink 5.4,2013-04-28 23:56:00,
2013-04-28 20:01:00,78.8,69.4,29.82,North,-999,0.0,0.0,73,0.00,,,-99.99,0,WeatherLink 5.4,2013-04-29 00:01:00,
2013-04-28 20:07:00,78.8,69.8,29.82,North,-999,0.0,0.0,74,0.00,,,-99.99,0,WeatherLink 5.4,2013-04-29 00:07:00,
2013-04-28 20:13:00,78.8,69.8,29.82,East,90,0.0,2.0,74,0.00,,,-99.99,0,WeatherLink 5.4,2013-04-29 00:13:00,
2013-04-28 20:19:00,78.6,69.6,29.82,North,-999,0.0,0.0,74,0.00,,,-99.99,0,WeatherLink 5.4,2013-04-29 00:19:00,
2013-04-28 20:25:00,78.6,69.6,29.83,East,90,1.0,3.0,74,0.00,,,-99.99,0,WeatherLink 5.4,2013-04-29 00:25:00,
2013-04-28 20:31:00,78.6,69.6,29.83,North,-999,0.0,0.0,74,0.00,,,-99.99,0,WeatherLink 5.4,2013-04-29 00:31:00,
2013-04-28 20:36:00,78.6,69.6,29.83,North,-999,0.0,0.0,74,0.00,,,-99.99,0,WeatherLink 5.4,2013-04-29 00:36:00,
2013-04-28 20:42:00,78.6,69.6,29.83,North,-999,0.0,0.0,74,0.00,,,-99.99,0,WeatherLink 5.4,2013-04-29 00:42:00,
2013-04-28 20:47:00,78.6,69.6,29.83,North,-999,0.0,0.0,74,0.00,,,-99.99,0,WeatherLink 5.4,2013-04-29 00:47:00,
2013-04-28 20:52:00,78.5,69.9,29.83,North,-999,0.0,0.0,75,0.00,,,-99.99,0,WeatherLink 5.4,2013-04-29 00:52:00,
2013-04-28 20:57:00,78.5,69.9,29.83,North,-999,0.0,0.0,75,0.00,,,-99.99,0,WeatherLink 5.4,2013-04-29 00:57:00,
2013-04-28 21:02:00,78.5,69.9,29.83,East,90,0.0,1.0,75,0.00,,,-99.99,0,WeatherLink 5.4,2013-04-29 01:02:00,
2013-04-28 21:08:00,78.5,70.3,29.83,North,-999,0.0,0.0,76,0.00,,,-99.99,0,WeatherLink 5.4,2013-04-29 01:08:00,
2013-04-28 21:13:00,78.5,70.3,29.83,North,-999,0.0,0.0,76,0.00,,,-99.99,0,WeatherLink 5.4,2013-04-29 01:13:00,
2013-04-28 21:18:00,78.5,70.3,29.83,North,-999,0.0,0.0,76,0.00,,,-99.99,0,WeatherLink 5.4,2013-04-29 01:18:00,
2013-04-28 21:24:00,78.6,70.4,29.83,East,90,1.0,5.0,76,0.00,,,-99.99,0,WeatherLink 5.4,2013-04-29 01:24:00,
2013-04-28 21:29:00,78.6,70.4,29.83,North,-999,0.0,0.0,76,0.00,,,-99.99,0,WeatherLink 5.4,2013-04-29 01:29:00,
2013-04-28 21:34:00,78.5,69.9,29.83,North,-999,0.0,0.0,75,0.00,,,-99.99,0,WeatherLink 5.4,2013-04-29 01:34:00,
2013-04-28 21:40:00,78.5,69.9,29.83,ESE,112,1.0,6.0,75,0.00,,,-99.99,0,WeatherLink 5.4,2013-04-29 01:40:00,
2013-04-28 21:45:00,78.5,69.9,29.83,North,-999,0.0,0.0,75,0.00,,,-99.99,0,WeatherLink 5.4,2013-04-29 01:45:00,
2013-04-28 21:50:00,78.4,69.4,29.83,North,-999,0.0,0.0,74,0.00,,,-99.99,0,WeatherLink 5.4,2013-04-29 01:50:00,
2013-04-28 21:56:00,78.3,69.3,29.84,North,-999,0.0,0.0,74,0.00,,,-99.99,0,WeatherLink 5.4,2013-04-29 01:56:00,
2013-04-28 22:02:00,78.3,69.3,29.84,North,-999,0.0,0.0,74,0.00,,,-99.99,0,WeatherLink 5.4,2013-04-29 02:02:00,
2013-04-28 22:07:00,78.3,69.3,29.84,North,-999,0.0,0.0,74,0.00,,,-99.99,0,WeatherLink 5.4,2013-04-29 02:07:00,
2013-04-28 22:13:00,78.3,69.7,29.84,North,-999,0.0,0.0,75,0.00,,,-99.99,0,WeatherLink 5.4,2013-04-29 02:13:00,
2013-04-28 22:19:00,78.1,69.5,29.84,North,-999,0.0,0.0,75,0.00,,,-99.99,0,WeatherLink 5.4,2013-04-29 02:19:00,
2013-04-28 22:25:00,78.1,69.5,29.85,North,-999,0.0,0.0,75,0.00,,,-99.99,0,WeatherLink 5.4,2013-04-29 02:25:00,
2013-04-28 22:30:00,78.2,69.6,29.85,North,-999,0.0,0.0,75,0.00,,,-99.99,0,WeatherLink 5.4,2013-04-29 02:30:00,
2013-04-28 22:36:00,78.3,70.1,29.85,North,-999,0.0,0.0,76,0.00,,,-99.99,0,WeatherLink 5.4,2013-04-29 02:36:00,
2013-04-28 22:42:00,78.3,70.1,29.85,North,-999,0.0,0.0,76,0.00,,,-99.99,0,WeatherLink 5.4,2013-04-29 02:42:00,
2013-04-28 22:47:00,78.3,70.1,29.85,North,-999,0.0,0.0,76,0.00,,,-99.99,0,WeatherLink 5.4,2013-04-29 02:47:00,
2013-04-28 22:53:00,78.2,70.4,29.85,North,-999,0.0,0.0,77,0.00,,,-99.99,0,WeatherLink 5.4,2013-04-29 02:53:00,
2013-04-28 22:58:00,77.9,70.5,29.85,North,-999,0.0,0.0,78,0.00,,,-99.99,0,WeatherLink 5.4,2013-04-29 02:58:00,
2013-04-28 23:04:00,77.9,70.9,29.85,North,-999,0.0,0.0,79,0.00,,,-99.99,0,WeatherLink 5.4,2013-04-29 03:04:00,
2013-04-28 23:10:00,77.7,70.7,29.84,North,-999,0.0,0.0,79,0.00,,,-99.99,0,WeatherLink 5.4,2013-04-29 03:10:00,
2013-04-28 23:15:00,77.7,71.0,29.84,North,-999,0.0,0.0,80,0.00,,,-99.99,0,WeatherLink 5.4,2013-04-29 03:15:00,
2013-04-28 23:21:00,77.6,70.9,29.84,North,-999,0.0,0.0,80,0.00,,,-99.99,0,WeatherLink 5.4,2013-04-29 03:21:00,
2013-04-28 23:27:00,77.6,70.9,29.85,North,-999,0.0,0.0,80,0.00,,,-99.99,0,WeatherLink 5.4,2013-04-29 03:27:00,
2013-04-28 23:32:00,77.6,71.3,29.85,North,-999,0.0,0.0,81,0.00,,,-99.99,0,WeatherLink 5.4,2013-04-29 03:32:00,
2013-04-28 23:38:00,77.4,71.5,29.85,North,-999,0.0,0.0,82,0.00,,,-99.99,0,WeatherLink 5.4,2013-04-29 03:38:00,
2013-04-28 23:43:00,77.2,71.3,29.85,North,-999,0.0,0.0,82,0.00,,,-99.99,0,WeatherLink 5.4,2013-04-29 03:43:00,
2013-04-28 23:49:00,77.2,71.3,29.85,North,-999,0.0,0.0,82,0.00,,,-99.99,0,WeatherLink 5.4,2013-04-29 03:49:00,
2013-04-28 23:55:00,76.8,70.9,29.85,North,-999,0.0,0.0,82,0.00,,,-99.99,0,WeatherLink 5.4,2013-04-29 03:55:00,